TJS-3

Last updated on Tue Oct 08 2024 00:02:41 GMT+0000 (Coordinated Universal Time)

1 43874U 18110A 24281.76190045 .00000015 00000+0 00000+0 0 9990 2 43874 0.9399 87.6570 0004726 139.9072 236.6980 1.00275493 21290
UTC large
Height (km)
Speed (km/s)
/
Latitude / Longitude
Inclination (degrees)
Orbital Period (minutes)
Azimuth
Elevation
Range (km)
Doppler Factor

Next 0 passes for location: London (51.5072 / 0.1276)

Sorry there are no passes over London.